Meteo Giornale » Osservazioni meteo Stati Uniti (USA) » Lewisburg-Greenbrier
ore: 08:45 - Osservazioni Meteo Lewisburg-Greenbrier
Lat. 37° 52' N Lon. 80° 24' W Alt. 702 metri s.l.m.
19 °C
Pioviggine Foschia
Temp. 24 Ore
0 °C
28 °C
Nord
0 Km/h
Dew point 19 °C
Umidità 100 %
Visibilità 5 Km
Il sole sorge alle ore 06:51
Il sole tramonta alle ore 19:51
| Data e Ora | Cielo e Fenomeni | T °C | DP °C | Um. % | Pres. hPa | Vis. km | Vento km/h | |
|---|---|---|---|---|---|---|---|---|
| Oggi h: 08:45 | Pioviggine Foschia | 19 | 19 | 100 | 1024 | 5 | N 0 | |
| Oggi h: 08:15 | Nebbia | 18 | 18 | 100 | 1023 | 0 | N 5.5 | |
| Oggi h: 07:55 | Nebbia | 18 | 18 | 100 | 1023 | 0 | N 0 | |
| Oggi h: 07:35 | Nebbia | 18 | 18 | 100 | 1023 | 2 | N 0 | |
| Oggi h: 07:15 | Nebbia | 18 | 18 | 100 | 1023 | 0 | N 3.7 | |
| Oggi h: 06:55 | Nebbia | 17 | 17 | 100 | 1022 | 0 | N 3.7 | |
| Oggi h: 06:35 | Nebbia | 17 | 17 | 100 | 1022 | 0 | N/NE 7.4 | |
| Oggi h: 06:15 | Nebbia | 18 | 18 | 100 | 1022 | 0 | N 3.7 | |
| Oggi h: 05:55 | Nebbia | 18 | 18 | 100 | 1022 | 0 | N 5.5 | |
| Oggi h: 05:35 | Nebbia | 18 | 18 | 100 | 1022 | 0 | N 5.5 | |
| Oggi h: 05:15 | Molto Nuvoloso | 18 | 18 | 100 | 1022 | 11 | N/NE 7.4 | |
| Oggi h: 04:55 | Nebbia | 18 | 18 | 100 | 1022 | 0 | N 3.7 | |
| Oggi h: 04:35 | Coperto | 0 | 0 | 100 | 1022 | 0 | NE 7.4 | |
| Oggi h: 04:15 | Nebbia | 18 | 18 | 100 | 1022 | 0 | N 3.7 | |
| Oggi h: 03:55 | Foschia | 18 | 18 | 100 | 1022 | 2 | N 0 | |
| Oggi h: 03:35 | Coperto | 0 | 0 | 53 | 1022 | 0 | N 0 | |
| Oggi h: 03:15 | Nebbia | 18 | 18 | 100 | 1022 | 0 | N 0 | |
| Oggi h: 02:55 | Nebbia | 18 | 18 | 100 | 1022 | 0 | N 0 | |
| Oggi h: 02:35 | Nebbia | 18 | 18 | 100 | 1022 | 0 | N 5.5 | |
| Oggi h: 02:15 | Nebbia | 18 | 18 | 100 | 1022 | 0 | N 0 | |
| Oggi h: 01:55 | Nebbia | 19 | 19 | 100 | 1022 | 0 | N 1.8 | |
| Oggi h: 01:35 | Nebbia | 18 | 18 | 100 | 1022 | 0 | N 0 | |
| Oggi h: 01:15 | Foschia | 19 | 19 | 100 | 1023 | 2 | N 3.7 | |
| Oggi h: 00:55 | Sereno | 19 | 19 | 100 | 1023 | 11 | N 0 | |
| Oggi h: 00:35 | Foschia | 20 | 20 | 100 | 1023 | 8 | N 0 | |
| Oggi h: 00:15 | Foschia | 20 | 20 | 100 | 1023 | 10 | N 0 | |
| Ieri h: 23:55 | Foschia | 20 | 19 | 93 | 1023 | 11 | N 3.7 | |
| Ieri h: 23:35 | Sereno | 20 | 20 | 100 | 1023 | 14 | N 0 | |
| Ieri h: 23:15 | Sereno | 20 | 20 | 100 | 1023 | 13 | N 0 | |
| Ieri h: 22:55 | Sereno | 20 | 20 | 100 | 1023 | 11 | N/NE 7.4 | |
| Ieri h: 22:35 | Sereno | 20 | 20 | 100 | 1023 | 14 | N 7.4 | |
| Ieri h: 22:15 | Sereno | 21 | 20 | 94 | 1023 | 10 | N 0 | |
| Ieri h: 21:55 | Sereno | 22 | 21 | 94 | 1023 | 10 | N 0 | |
| Ieri h: 21:35 | Sereno | 22 | 21 | 94 | 1022 | 10 | N 5.5 | |
| Ieri h: 21:15 | Sereno | 22 | 21 | 94 | 1022 | 10 | N 5.5 | |
| Ieri h: 20:55 | Sereno | 22 | 21 | 94 | 1022 | 11 | N 0 | |
| Ieri h: 20:35 | Sereno | 23 | 21 | 88 | 1022 | 10 | N 0 | |
| Ieri h: 20:15 | Sereno | 24 | 21 | 83 | 1022 | 10 | N 5.5 | |
| Ieri h: 19:55 | Sereno | 25 | 22 | 83 | 1022 | 10 | N 0 | |
| Ieri h: 19:35 | Sereno | 26 | 21 | 73 | 1022 | 10 | N 5.5 | |
| Ieri h: 19:15 | Sereno | 26 | 21 | 73 | 1022 | 10 | N 5.5 | |
| Ieri h: 18:51 | Sereno | 27 | 20 | 65 | 1022 | 10 | N 0 | |
| Ieri h: 17:51 | Sereno | 27 | 20 | 65 | 1022 | 10 | O/SO 7.4 | |
| Ieri h: 16:51 | Sereno | 28 | 20 | 61 | 1022 | 10 | NO 7.4 | |
| Ieri h: 14:45 | Coperto | 28 | 19 | 58 | 1023 | 10 | N/NO 13 | |
| Ieri h: 13:45 | Molto Nuvoloso | 27 | 20 | 65 | 1023 | 10 | O/SO 11.1 | |
| Ieri h: 12:45 | Nuvoloso | 27 | 20 | 65 | 1023 | 10 | O 9.3 | |
| Ieri h: 11:45 | Nuvoloso | 26 | 21 | 73 | 1024 | 10 | SO 11.1 | |
| Ieri h: 10:45 | Nuvoloso | 24 | 22 | 88 | 1024 | 10 | O/SO 11.1 | |
| Ieri h: 09:45 | Foschia | 22 | 21 | 94 | 1024 | 6 | N 0 | |



